{"data":{"norad_id":44451,"epoch":"2026-05-25T04:55:39.990144Z","epoch_age_seconds":56549,"freshness":"FRESH","line1":"1 44451U 19045C   26145.20532396  .00002372  00000+0  17699-3 0  9993","line2":"2 44451  34.9927 109.5693 0000925 241.1009 118.9607 15.02547598373090","mean_motion":15.02547598,"eccentricity":9.25e-5,"inclination_deg":34.9927,"raan_deg":109.5693,"arg_perigee_deg":241.1009,"mean_anomaly_deg":118.9607,"bstar":0.00017699,"rev_number":37309,"period_min":95.837230176052,"perigee_km":558.40214570713,"apogee_km":559.68552416159,"semimajor_km":6937.1808349344,"source":"CELESTRAK","updated_at":"2026-05-25T13:37:55.973864Z"}}